1506805200.13,9519,15.75,74182.5,0.17,-39.29,-39.47,0,*77
1506805201.32,9520,15.75,74178.5,0.15,-39.35,-39.47,0,*72
1506805202.57,9521,15.75,74178.0,0.17,-39.29,-39.29,0,*74
1506805203.79,9522,15.75,74180.8,0.19,-39.09,-39.29,0,*7B
1506805205.01,9523,15.75,74178.8,0.19,-38.85,-38.91,0,*7D
1506805206.23,9524,15.75,74176.3,0.19,-39.03,-39.09,0,*75
1506805207.45,9525,15.75,74178.8,0.19,-38.85,-38.91,0,*7B
1506805208.69,9526,15.75,74182.8,0.21,-39.03,-39.09,0,*7C
1506805209.92,9527,15.75,74180.3,0.21,-38.85,-39.03,0,*78
1506805211.16,9528,15.75,74178.8,0.21,-39.03,-39.09,0,*72
1506805212.42,9529,15.75,74182.5,0.21,-39.29,-39.29,0,*79
1506805213.66,9530,15.75,74180.0,0.21,-39.41,-39.47,0,*77
1506805214.91,9531,15.75,74176.8,0.21,-39.23,-39.23,0,*70
1506805216.16,9532,15.75,74176.5,0.23,-39.15,-39.03,0,*76
1506805217.37,9533,15.75,74182.8,0.23,-39.15,-39.35,0,*72
1506805218.64,9534,15.75,74178.3,0.21,-39.79,-39.79,0,*75
1506805219.83,9535,15.75,74178.8,0.23,-39.35,-39.35,0,*76
1506805221.02,9536,15.75,74176.0,0.27,-39.09,-39.09,0,*71
1506805222.27,9537,15.75,74178.0,0.23,-39.59,-39.59,0,*74
1506805223.51,9538,15.75,74178.8,0.23,-39.53,-39.59,0,*71
1506805224.72,9539,15.75,74178.8,0.23,-39.35,-39.53,0,*7A
1506805225.93,9540,15.75,74180.8,0.23,-39.35,-39.41,0,*77
1506805227.14,9541,15.75,74178.5,0.23,-39.35,-39.53,0,*75
1506805228.39,9542,15.75,74176.0,0.23,-39.59,-39.59,0,*76
1506805229.57,9543,15.75,74182.5,0.23,-39.35,-39.35,0,*77
1506805230.76,9544,15.75,74178.0,0.23,-39.35,-39.35,0,*70
1506805231.94,9545,15.75,74176.5,0.27,-39.35,-39.47,0,*70
1506805233.17,9546,15.75,74176.0,0.23,-39.41,-39.53,0,*71
1506805234.41,9547,15.75,74178.5,0.23,-39.53,-39.41,0,*70
1506805235.59,9548,15.75,74180.0,0.27,-39.47,-39.47,0,*78
1506805236.83,9549,15.75,74178.5,0.27,-39.15,-39.29,0,*76
1506805238.09,9550,15.75,74182.3,0.23,-39.59,-39.59,0,*75
1506805239.32,9551,15.75,74182.5,0.27,-39.53,-39.53,0,*70
1506805240.5,9552,15.75,74178.0,0.27,-39.35,-39.47,0,*76
1506805241.72,9553,15.75,74176.0,0.27,-39.71,-39.65,0,*77
1506805242.96,9554,15.75,74182.5,0.23,-39.41,-39.53,0,*72
1506805244.17,9555,15.75,74180.8,0.27,-38.91,-38.97,0,*72
1506805245.37,9556,15.75,74180.8,0.27,-39.09,-39.09,0,*77
1506805246.6,9557,15.75,74178.3,0.27,-39.53,-39.53,0,*76
1506805247.83,9558,15.75,74182.3,0.27,-39.29,-39.29,0,*79
1506805249.04,9559,15.75,74180.5,0.27,-39.47,-39.53,0,*7D
1506805250.28,9560,15.75,74180.0,0.29,-39.15,-39.35,0,*7E
1506805251.54,9561,15.75,74178.5,0.29,-39.53,-39.53,0,*7D
1506805252.78,9562,15.75,74180.5,0.29,-39.15,-39.09,0,*73
1506805253.99,9563,15.75,74180.0,0.27,-39.53,-39.47,0,*74
1506805255.22,9564,15.75,74178.5,0.29,-39.65,-39.53,0,*7D
1506805256.44,9565,15.75,74178.8,0.29,-39.65,-39.65,0,*79
1506805257.68,9566,15.75,74176.3,0.29,-39.47,-39.53,0,*7F
1506805258.88,9567,15.75,74180.3,0.31,-39.41,-39.47,0,*74
1506805260.1,9568,15.75,74176.5,0.29,-39.65,-39.65,0,*74
1506805261.37,9569,15.75,74178.3,0.29,-39.71,-39.71,0,*75
1506805262.61,9570,15.75,74178.0,0.29,-39.47,-39.53,0,*78
1506805263.82,9571,15.75,74180.8,0.29,-39.47,-39.47,0,*7C
1506805265.08,9572,15.75,74176.0,0.29,-39.71,-39.71,0,*7F
1506805266.27,9573,15.75,74178.3,0.31,-39.47,-39.47,0,*77
1506805267.5,9574,15.75,74178.3,0.29,-39.47,-39.41,0,*7F
1506805268.74,9575,15.75,74178.5,0.29,-39.65,-39.53,0,*7D
1506805269.96,9576,15.75,74180.3,0.29,-39.65,-39.65,0,*7B
1506805271.19,9577,15.75,74176.0,0.29,-39.47,-39.53,0,*7F
1506805272.4,9578,15.75,74180.3,0.29,-39.47,-39.47,0,*75
1506805273.62,9579,15.75,74178.0,0.29,-39.65,-39.65,0,*74
1506805274.86,9580,15.75,74176.0,0.31,-39.41,-39.59,0,*72
1506805276.1,9581,15.75,74178.8,0.31,-39.41,-39.41,0,*7A
1506805277.34,9582,15.75,74178.0,0.31,-39.59,-39.59,0,*79
1506805278.59,9583,15.75,74180.0,0.31,-39.59,-39.59,0,*78
1506805279.83,9584,15.75,74178.5,0.29,-39.91,-39.97,0,*70
1506805281.08,9585,15.75,74180.3,0.29,-39.79,-39.91,0,*71
1506805282.27,9586,15.75,74176.0,0.31,-39.85,-39.85,0,*7D
1506805283.51,9587,15.75,74178.5,0.29,-40.09,-40.15,0,*78
1506805284.76,9588,15.75,74178.8,0.29,-40.09,-40.15,0,*77
1506805285.97,9589,15.75,74178.3,0.29,-39.91,-39.91,0,*7B
1506805287.17,9590,15.75,74178.8,0.31,-39.85,-39.91,0,*7F
1506805288.41,9591,15.75,74180.3,0.29,-39.91,-39.97,0,*74
1506805289.68,9592,15.75,74176.5,0.29,-39.79,-39.97,0,*71
1506805290.94,9593,15.75,74174.8,0.29,-39.97,-40.09,0,*79
1506805292.16,9594,15.75,74178.8,0.31,-39.91,-39.71,0,*70
1506805293.39,9595,15.75,74176.0,0.31,-40.21,-40.29,0,*77
1506805294.62,9596,15.75,74176.8,0.29,-40.29,-40.47,0,*7D
1506805295.86,9597,15.75,74178.0,0.29,-39.97,-40.15,0,*70
1506805297.12,9598,15.75,74178.3,0.29,-39.97,-40.09,0,*72
1506805298.38,9599,15.75,74174.8,0.29,-40.29,-40.29,0,*7A
1506805299.64,9600,15.75,74178.5,0.29,-39.97,-39.97,0,*79
1506805300.88,9601,15.75,74176.5,0.29,-39.91,-39.97,0,*7E
1506805302.13,9602,15.75,74178.8,0.29,-40.09,-40.15,0,*76
1506805303.32,9603,15.75,74178.0,0.31,-39.91,-39.91,0,*73
1506805304.58,9604,15.75,74178.5,0.29,-39.97,-39.97,0,*7D
1506805305.79,9605,15.75,74178.3,0.27,-40.29,-40.35,0,*7F
1506805306.98,9606,15.75,74176.5,0.27,-40.15,-40.35,0,*73
1506805308.22,9607,15.75,74176.8,0.23,-40.21,-40.41,0,*72
1506805309.45,9608,15.75,74178.8,0.27,-40.29,-40.29,0,*7F
1506805310.68,9609,15.75,74182.0,0.27,-40.09,-40.15,0,*73
1506805311.9,9610,15.75,74174.3,0.27,-40.15,-40.29,0,*79
1506805313.11,9611,15.75,74178.3,0.27,-39.97,-40.15,0,*73
1506805314.31,9612,15.75,74176.5,0.23,-40.15,-40.15,0,*70
1506805315.53,9613,15.75,74178.3,0.27,-40.15,-40.29,0,*7A
1506805316.77,9614,15.75,74178.5,0.23,-39.97,-39.97,0,*76
1506805318.01,9615,15.75,74180.0,0.27,-39.97,-39.97,0,*73
1506805319.2,9616,15.75,74178.8,0.23,-39.85,-39.91,0,*71
1506805320.41,9617,15.75,74180.0,0.23,-39.97,-40.15,0,*71
1506805321.6,9618,15.75,74180.0,0.23,-40.03,-40.15,0,*7D
1506805322.79,9619,15.75,74178.3,0.23,-40.03,-40.03,0,*7B
1506805324.01,9620,15.75,74180.3,0.27,-39.91,-39.97,0,*73
1506805325.23,9621,15.75,74178.5,0.27,-39.91,-39.97,0,*72
1506805326.45,9622,15.75,74176.8,0.27,-39.91,-39.97,0,*71
1506805327.67,9623,15.75,74176.5,0.27,-39.91,-40.09,0,*79
1506805328.89,9624,15.75,74176.8,0.23,-40.15,-40.21,0,*72
1506805330.09,9625,15.75,74178.5,0.23,-40.15,-40.15,0,*74
1506805331.32,9626,15.75,74176.3,0.23,-40.15,-40.21,0,*70
1506805332.53,9627,15.75,74180.0,0.27,-39.97,-40.15,0,*76
1506805333.74,9628,15.75,74176.8,0.23,-39.97,-39.85,0,*7A
1506805334.99,9629,15.75,74178.3,0.23,-39.59,-39.71,0,*72
1506805336.19,9630,15.75,74174.3,0.23,-40.15,-40.15,0,*70
1506805337.38,9631,15.75,74178.0,0.23,-39.85,-39.85,0,*71
1506805338.61,9632,15.75,74178.8,0.23,-40.21,-40.21,0,*72
1506805339.82,9633,15.75,74176.8,0.27,-39.97,-39.91,0,*71
1506805341.01,9634,15.75,74178.5,0.23,-40.03,-40.03,0,*74
1506805342.22,9635,15.75,74178.5,0.23,-40.21,-40.35,0,*70
1506805343.44,9636,15.75,74178.5,0.27,-40.09,-40.15,0,*7F
1506805344.64,9637,15.75,74178.3,0.23,-40.15,-40.15,0,*77
1506805345.82,9638,15.75,74180.3,0.23,-40.03,-40.03,0,*78
1506805347.06,9639,15.75,74176.5,0.23,-39.97,-39.97,0,*79
1506805348.29,9640,15.75,74178.8,0.23,-40.21,-40.21,0,*77
1506805349.5,9641,15.75,74178.3,0.23,-39.97,-40.15,0,*72
1506805350.7,9642,15.75,74174.3,0.27,-39.91,-39.91,0,*71
1506805351.9,9643,15.75,74182.5,0.23,-40.15,-40.15,0,*74
1506805353.16,9644,15.75,74178.3,0.21,-40.29,-40.41,0,*7F
1506805354.39,9645,15.75,74176.0,0.23,-40.15,-40.21,0,*75
1506805355.61,9646,15.75,74176.8,0.23,-40.15,-40.21,0,*76
1506805356.82,9647,15.75,74180.3,0.23,-40.03,-40.21,0,*70
1506805358.01,9648,15.75,74176.8,0.23,-40.35,-40.35,0,*7F
1506805359.19,9649,15.75,74176.0,0.23,-40.03,-40.03,0,*7E
1506805360.42,9650,15.75,74176.8,0.23,-39.85,-39.79,0,*75
1506805361.65,9651,15.75,74176.5,0.23,-39.97,-39.97,0,*77
1506805362.84,9652,15.75,74180.3,0.23,-40.03,-40.03,0,*74
1506805364.04,9653,15.75,74176.8,0.23,-40.15,-40.15,0,*75
1506805365.25,9654,15.75,74176.5,0.21,-40.03,-40.03,0,*70
1506805366.47,9655,15.75,74178.5,0.21,-39.91,-39.91,0,*71
1506805367.74,9656,15.75,74180.3,0.21,-39.79,-39.79,0,*72
1506805368.98,9657,15.75,74176.8,0.21,-39.79,-39.85,0,*70
1506805370.18,9658,15.75,74178.8,0.27,-39.65,-39.65,0,*7A
1506805371.38,9659,15.75,74178.0,0.27,-39.65,-39.65,0,*7B
1506805372.62,9660,15.75,74176.8,0.27,-39.71,-39.71,0,*71
1506805373.86,9661,15.75,74176.8,0.23,-39.97,-39.97,0,*74
1506805375.05,9662,15.75,74176.8,0.23,-39.85,-39.85,0,*77
1506805376.26,9663,15.75,74180.5,0.23,-39.97,-39.85,0,*75
1506805377.48,9664,15.75,74176.8,0.23,-39.85,-39.79,0,*72
1506805378.7,9665,15.75,74174.5,0.23,-39.85,-39.97,0,*73
1506805379.89,9666,15.75,74180.3,0.23,-40.03,-40.15,0,*74
1506805381.11,9667,15.75,74176.5,0.27,-40.09,-40.15,0,*7B
1506805382.34,9668,15.75,74180.8,0.27,-39.97,-39.97,0,*79
1506805383.58,9669,15.75,74176.0,0.23,-39.97,-39.97,0,*7C
1506805384.79,9670,15.75,74178.0,0.23,-39.97,-39.85,0,*77
1506805386.02,9671,15.75,74176.5,0.23,-39.97,-39.97,0,*75
1506805387.21,9672,15.75,74176.8,0.23,-40.03,-40.15,0,*71
1506805388.43,9673,15.75,74176.8,0.23,-40.03,-40.21,0,*77
1506805389.65,9674,15.75,74176.3,0.23,-40.15,-40.21,0,*77
1506805390.84,9675,15.75,74180.0,0.23,-40.03,-40.03,0,*71
1506805392.04,9676,15.75,74178.5,0.23,-40.15,-40.35,0,*70
1506805393.26,9677,15.75,74176.3,0.23,-40.15,-40.21,0,*74
1506805394.48,9678,15.75,74178.8,0.23,-40.15,-40.21,0,*7B
1506805395.7,9679,15.75,74178.3,0.23,-40.03,-40.21,0,*7D
1506805396.9,9680,15.75,74176.3,0.23,-40.21,-40.35,0,*7E
1506805398.09,9681,15.75,74180.8,0.23,-40.03,-40.03,0,*7A
1506805399.29,9682,15.75,74178.3,0.23,-40.15,-40.15,0,*79
1506805400.52,9683,15.75,74180.8,0.23,-39.97,-39.97,0,*78
1506805401.74,9684,15.75,74176.5,0.23,-39.97,-40.15,0,*7B
1506805402.96,9685,15.75,74178.3,0.23,-39.79,-39.85,0,*7D
1506805404.17,9686,15.75,74182.8,0.23,-40.03,-39.97,0,*7E
1506805405.38,9687,15.75,74176.3,0.23,-39.97,-39.85,0,*7F
1506805406.61,9688,15.75,74180.8,0.23,-40.21,-40.21,0,*73
1506805407.83,9689,15.75,74180.0,0.23,-40.35,-40.21,0,*77
1506805409.04,9690,15.75,74180.5,0.23,-40.03,-39.97,0,*79
1506805410.26,9691,15.75,74182.0,0.23,-39.85,-39.79,0,*78
1506805411.47,9692,15.75,74178.8,0.23,-40.21,-40.35,0,*7D
1506805412.66,9693,15.75,74176.0,0.23,-40.03,-40.15,0,*7E
1506805413.87,9694,15.75,74180.5,0.23,-40.03,-39.97,0,*7D
1506805415.06,9695,15.75,74182.5,0.23,-40.03,-40.03,0,*7F
1506805416.29,9696,15.75,74180.3,0.27,-39.97,-40.09,0,*71
1506805417.51,9697,15.75,74182.5,0.23,-40.03,-40.21,0,*7D
1506805418.7,9698,15.75,74182.0,0.23,-40.03,-40.15,0,*75
1506805419.9,9699,15.75,74182.8,0.23,-40.15,-40.35,0,*71
1506805421.14,9700,15.75,74178.8,0.23,-40.41,-40.41,0,*72
1506805422.35,9701,15.75,74180.3,0.23,-40.21,-40.35,0,*76
1506805423.54,9702,15.75,74176.3,0.23,-40.03,-40.15,0,*77
1506805424.76,9703,15.75,74178.5,0.27,-40.09,-40.15,0,*78
1506805425.94,9704,15.75,74178.8,0.23,-40.35,-40.35,0,*76
1506805427.16,9705,15.75,74180.3,0.23,-40.41,-40.35,0,*74
1506805428.36,9706,15.75,74178.0,0.23,-40.15,-40.15,0,*74
1506805429.57,9707,15.75,74180.0,0.23,-40.03,-39.97,0,*76
1506805430.82,9708,15.75,74178.8,0.27,-40.09,-40.09,0,*7E
1506805432.02,9709,15.75,74178.5,0.23,-40.21,-40.35,0,*7E
1506805433.28,9710,15.75,74178.8,0.21,-40.21,-40.29,0,*79
1506805434.55,9711,15.75,74180.8,0.21,-40.09,-40.21,0,*7A
1506805435.76,9712,15.75,74180.5,0.21,-40.03,-40.03,0,*73
1506805436.99,9713,15.75,74180.0,0.23,-39.97,-39.97,0,*70
1506805438.2,9714,15.75,74178.3,0.23,-39.97,-39.85,0,*74
1506805439.42,9715,15.75,74176.3,0.23,-39.85,-39.79,0,*75
1506805440.66,9716,15.75,74178.8,0.23,-39.97,-39.97,0,*75
1506805441.85,9717,15.75,74178.5,0.27,-39.91,-39.91,0,*70
1506805443.1,9718,15.75,74176.3,0.23,-39.71,-39.71,0,*7B
1506805444.32,9719,15.75,74176.8,0.27,-39.91,-39.71,0,*70
1506805445.56,9720,15.75,74178.8,0.27,-39.97,-39.97,0,*74
1506805446.8,9721,15.75,74178.8,0.27,-39.97,-39.79,0,*75
1506805448.03,9722,15.75,74176.5,0.27,-39.97,-39.79,0,*76
1506805449.25,9723,15.75,74176.5,0.27,-39.65,-39.71,0,*72
1506805450.47,9724,15.75,74174.3,0.27,-39.91,-39.97,0,*76
1506805451.72,9725,15.75,74176.5,0.27,-39.71,-39.71,0,*71
1506805452.94,9726,15.75,74176.8,0.27,-40.09,-40.15,0,*7F
1506805454.18,9727,15.75,74178.5,0.23,-39.71,-39.71,0,*77
1506805455.4,9728,15.75,74176.8,0.27,-39.71,-39.65,0,*79
1506805456.61,9729,15.75,74176.3,0.27,-39.53,-39.47,0,*78
1506805457.79,9730,15.75,74176.3,0.27,-39.47,-39.47,0,*75
1506805459.07,9731,15.75,74182.0,0.29,-39.79,-39.79,0,*7A
1506805460.29,9732,15.75,74178.5,0.29,-39.65,-39.65,0,*79
1506805461.52,9733,15.75,74178.3,0.29,-39.47,-39.53,0,*7D
1506805462.77,9734,15.75,74180.3,0.29,-39.71,-39.65,0,*7A
1506805464.04,9735,15.75,74180.3,0.29,-39.71,-39.71,0,*7E
1506805465.3,9736,15.75,74178.3,0.29,-39.97,-39.79,0,*7D
1506805466.52,9737,15.75,74178.5,0.29,-39.91,-39.91,0,*7C
1506805467.76,9738,15.75,74178.5,0.29,-39.91,-39.97,0,*75
1506805469.0,9739,15.75,74178.3,0.31,-39.41,-39.59,0,*72
1506805470.19,9740,15.75,74178.0,0.31,-39.65,-39.65,0,*75
1506805471.44,9741,15.75,74176.0,0.31,-39.59,-39.59,0,*74
1506805472.64,9742,15.75,74178.0,0.31,-39.29,-39.47,0,*7F
1506805473.88,9743,15.75,74176.5,0.31,-39.41,-39.41,0,*76
1506805475.06,9744,15.75,74178.5,0.31,-39.47,-39.47,0,*71
1506805476.27,9745,15.75,74178.0,0.33,-40.03,-39.91,0,*77
1506805477.51,9746,15.75,74174.8,0.33,-40.03,-40.09,0,*7B
1506805478.71,9747,15.75,74180.3,0.33,-40.03,-39.91,0,*75
1506805479.98,9748,15.75,74178.5,0.33,-40.09,-40.21,0,*75
1506805481.17,9749,15.75,74178.3,0.31,-39.91,-39.91,0,*7C
1506805482.36,9750,15.75,74180.3,0.31,-39.91,-40.03,0,*71
1506805483.57,9751,15.75,74176.5,0.31,-40.03,-40.09,0,*7F
1506805484.81,9752,15.75,74176.8,0.33,-39.91,-39.71,0,*7A
1506805486.08,9753,15.75,74176.0,0.33,-40.09,-40.09,0,*75
1506805487.31,9754,15.75,74180.8,0.31,-40.21,-40.09,0,*7A
1506805488.55,9755,15.75,74178.3,0.31,-40.41,-40.29,0,*7F
1506805489.82,9756,15.75,74180.0,0.33,-39.59,-39.59,0,*70
1506805491.06,9757,15.75,74178.5,0.33,-39.65,-39.71,0,*74
1506805492.29,9758,15.75,74182.8,0.35,-39.79,-39.65,0,*75
1506805493.54,9759,15.75,74176.3,0.35,-39.79,-39.59,0,*7B
1506805494.75,9760,15.75,74176.5,0.31,-39.85,-39.71,0,*7C
1506805496.0,9761,15.75,74176.0,0.31,-39.71,-39.71,0,*76
1506805497.23,9762,15.75,74176.0,0.33,-40.03,-40.09,0,*7D
1506805498.46,9763,15.75,74178.8,0.31,-40.21,-40.21,0,*74
1506805499.72,9764,15.75,74178.5,0.33,-40.29,-40.21,0,*79
1506805500.96,9765,15.75,74178.8,0.33,-40.03,-40.09,0,*7A
1506805502.22,9766,15.75,74176.5,0.33,-40.09,-40.09,0,*73
1506805503.44,9767,15.75,74176.0,0.33,-39.91,-39.91,0,*72
1506805504.63,9768,15.75,74178.0,0.35,-39.85,-39.65,0,*75
1506805505.84,9769,15.75,74176.5,0.33,-40.03,-40.03,0,*7C
1506805507.07,9770,15.75,74176.3,0.33,-40.29,-40.47,0,*7C
1506805508.3,9771,15.75,74174.3,0.33,-40.41,-40.47,0,*73
1506805509.55,9772,15.75,74178.5,0.33,-40.79,-40.79,0,*76
1506805510.82,9773,15.75,74178.0,0.33,-40.09,-40.09,0,*77
1506805512.04,9774,15.75,74176.3,0.31,-40.47,-40.41,0,*74
1506805513.24,9775,15.75,74176.8,0.29,-40.47,-40.47,0,*7A
1506805514.46,9776,15.75,74176.8,0.31,-40.47,-40.59,0,*7F
1506805515.67,9777,15.75,74176.3,0.31,-40.59,-40.47,0,*7E
1506805516.85,9778,15.75,74172.3,0.31,-40.65,-40.65,0,*7E
1506805518.08,9779,15.75,74176.3,0.31,-40.59,-40.59,0,*7F
1506805519.29,9780,15.75,74176.5,0.33,-40.65,-40.65,0,*7B
1506805520.52,9781,15.75,74178.5,0.31,-40.59,-40.59,0,*78
1506805521.74,9782,15.75,74176.0,0.31,-40.09,-40.03,0,*71
1506805522.97,9783,15.75,74174.8,0.31,-40.29,-40.21,0,*72
1506805524.16,9784,15.75,74178.8,0.31,-40.03,-39.91,0,*78
1506805525.39,9785,15.75,74176.0,0.31,-40.21,-40.09,0,*76
1506805526.65,9786,15.75,74172.5,0.29,-40.09,-39.97,0,*7F
1506805527.89,9787,15.75,74178.5,0.29,-39.97,-39.91,0,*71
1506805529.1,9788,15.75,74174.0,0.31,-40.09,-40.03,0,*7B
1506805530.34,9789,15.75,74172.0,0.31,-40.21,-40.09,0,*7A
1506805531.6,9790,15.75,74178.0,0.33,-40.41,-40.41,0,*7A
1506805532.84,9791,15.75,74176.8,0.31,-40.41,-40.29,0,*77
1506805534.05,9792,15.75,74178.0,0.31,-40.65,-40.59,0,*75
1506805535.23,9793,15.75,74172.8,0.31,-40.47,-40.47,0,*7B
1506805536.44,9794,15.75,74178.5,0.31,-40.59,-40.47,0,*73
1506805537.67,9795,15.75,74178.3,0.29,-40.29,-40.35,0,*79
1506805538.92,9796,15.75,74178.3,0.31,-40.41,-40.41,0,*7E
1506805540.15,9797,15.75,74174.5,0.29,-40.65,-40.85,0,*78
1506805541.36,9798,15.75,74176.3,0.31,-40.65,-40.59,0,*7F
1506805542.54,9799,15.75,74174.3,0.31,-40.65,-40.65,0,*71
1506805543.75,9800,15.75,74180.0,0.29,-40.35,-40.53,0,*77
1506805544.97,9801,15.75,74176.3,0.31,-40.47,-40.41,0,*79
1506805546.17,9802,15.75,74174.5,0.29,-40.53,-40.47,0,*70
1506805547.41,9803,15.75,74176.3,0.29,-40.73,-40.85,0,*7D
1506805548.59,9804,15.75,74176.0,0.31,-40.65,-40.65,0,*7A
1506805549.83,9805,15.75,74178.0,0.29,-40.85,-40.73,0,*7B
1506805551.06,9806,15.75,74180.3,0.29,-40.85,-40.73,0,*78
1506805552.27,9807,15.75,74176.3,0.29,-40.73,-40.73,0,*70
1506805553.49,9808,15.75,74178.3,0.27,-40.73,-40.85,0,*78
1506805554.73,9809,15.75,74182.8,0.27,-40.85,-40.85,0,*70
1506805555.98,9810,15.75,74178.8,0.27,-40.85,-40.85,0,*78
1506805557.19,9811,15.75,74176.5,0.27,-40.85,-40.73,0,*70
1506805558.37,9812,15.75,74174.8,0.27,-40.73,-40.73,0,*7A
1506805559.59,9813,15.75,74176.3,0.23,-40.85,-40.91,0,*7A
1506805560.78,9814,15.75,74176.5,0.27,-40.65,-40.65,0,*7C
1506805561.96,9815,15.75,74178.0,0.27,-40.65,-40.65,0,*7D
1506805563.17,9816,15.75,74180.3,0.27,-40.73,-40.85,0,*77
1506805564.37,9817,15.75,74176.0,0.27,-41.03,-40.91,0,*75
1506805565.62,9818,15.75,74178.8,0.27,-40.85,-40.85,0,*70
1506805566.86,9819,15.75,74176.0,0.27,-40.85,-40.85,0,*71
1506805568.05,9820,15.75,74172.5,0.27,-40.91,-40.73,0,*77
1506805569.27,9821,15.75,74174.8,0.23,-40.85,-40.73,0,*77
1506805570.5,9822,15.75,74178.0,0.23,-40.79,-40.79,0,*7D
1506805571.72,9823,15.75,74178.3,0.23,-40.41,-40.53,0,*7F
1506805572.93,9824,15.75,74176.5,0.23,-40.53,-40.41,0,*78
1506805574.11,9825,15.75,74174.8,0.27,-40.53,-40.47,0,*7B
1506805575.3,9826,15.75,74178.5,0.27,-40.47,-40.47,0,*7D
1506805576.48,9827,15.75,74174.3,0.27,-40.65,-40.47,0,*7C
1506805577.66,9828,15.75,74174.8,0.27,-40.53,-40.53,0,*73
1506805578.85,9829,15.75,74176.5,0.27,-40.47,-40.47,0,*72
1506805580.06,9830,15.75,74178.0,0.27,-40.29,-40.35,0,*77
1506805581.27,9831,15.75,74180.8,0.27,-40.35,-40.29,0,*76
1506805582.45,9832,15.75,74176.5,0.27,-40.65,-40.53,0,*7D
1506805583.64,9833,15.75,74176.8,0.27,-40.65,-40.73,0,*7E
1506805584.88,9834,15.75,74178.3,0.23,-40.59,-40.59,0,*7A
1506805586.06,9835,15.75,74172.8,0.27,-40.73,-40.65,0,*78
1506805587.27,9836,15.75,74172.0,0.27,-40.85,-40.65,0,*72
1506805588.49,9837,15.75,74178.3,0.27,-40.73,-40.85,0,*74
1506805589.69,9838,15.75,74178.0,0.23,-40.91,-40.91,0,*76
1506805590.92,9839,15.75,74174.8,0.23,-40.79,-40.79,0,*77
1506805592.16,9840,15.75,74178.5,0.23,-40.79,-40.59,0,*7B
1506805593.35,9841,15.75,74178.8,0.23,-40.73,-40.73,0,*78
1506805594.53,9842,15.75,74178.3,0.27,-40.65,-40.53,0,*7A
1506805595.74,9843,15.75,74176.0,0.23,-40.59,-40.73,0,*72
1506805596.93,9844,15.75,74178.3,0.27,-40.65,-40.65,0,*79
1506805598.14,9845,15.75,74176.3,0.27,-40.85,-40.65,0,*76
1506805599.36,9846,15.75,74176.0,0.23,-40.91,-40.79,0,*79
1506805600.55,9847,15.75,74178.0,0.27,-40.91,-40.91,0,*7A
1506805601.79,9848,15.75,74176.5,0.23,-40.85,-40.79,0,*72
1506805603.01,9849,15.75,74178.0,0.23,-40.73,-40.59,0,*78
1506805604.19,9850,15.75,74176.5,0.27,-40.53,-40.53,0,*7C
1506805605.38,9851,15.75,74176.3,0.23,-40.53,-40.53,0,*79
1506805606.56,9852,15.75,74176.5,0.27,-40.73,-40.65,0,*79
1506805607.78,9853,15.75,74176.0,0.23,-40.91,-40.79,0,*7D
1506805609.0,9854,15.75,74178.0,0.23,-40.97,-40.91,0,*7A
1506805610.23,9855,15.75,74174.8,0.23,-40.79,-40.79,0,*7D
1506805611.44,9856,15.75,74178.3,0.23,-40.79,-40.73,0,*74
1506805612.66,9857,15.75,74176.8,0.23,-40.91,-40.79,0,*79
1506805613.87,9858,15.75,74176.8,0.27,-40.85,-40.73,0,*7D
1506805615.06,9859,15.75,74176.3,0.27,-40.91,-40.73,0,*79
1506805616.29,9860,15.75,74174.0,0.23,-40.79,-40.79,0,*7B
1506805617.51,9861,15.75,74178.0,0.23,-40.59,-40.53,0,*70
1506805618.7,9862,15.75,74176.0,0.27,-40.35,-40.15,0,*7F
1506805619.91,9863,15.75,74178.0,0.23,-40.59,-40.53,0,*72
1506805621.1,9864,15.75,74178.3,0.23,-40.73,-40.73,0,*7F
1506805622.28,9865,15.75,74178.8,0.27,-40.53,-40.47,0,*7F
1506805623.47,9866,15.75,74174.3,0.23,-40.91,-40.73,0,*71
1506805624.69,9867,15.75,74178.3,0.23,-40.91,-40.79,0,*7A
1506805625.91,9868,15.75,74176.3,0.23,-40.97,-40.91,0,*75
1506805627.13,9869,15.75,74174.8,0.23,-40.97,-40.91,0,*74
1506805628.35,9870,15.75,74174.8,0.23,-40.91,-40.79,0,*7C
1506805629.54,9871,15.75,74176.8,0.23,-41.11,-40.91,0,*72
1506805630.79,9872,15.75,74176.3,0.23,-40.97,-40.97,0,*78
1506805632.0,9873,15.75,74178.0,0.23,-40.79,-40.73,0,*73
1506805633.24,9874,15.75,74176.3,0.23,-40.59,-40.59,0,*7E
1506805634.43,9875,15.75,74176.0,0.23,-40.91,-40.73,0,*73
1506805635.64,9876,15.75,74176.3,0.23,-40.79,-40.73,0,*76
1506805636.83,9877,15.75,74176.5,0.23,-40.73,-40.73,0,*7D
1506805638.06,9878,15.75,74178.8,0.23,-40.79,-40.79,0,*72
1506805639.25,9879,15.75,74178.8,0.23,-40.73,-40.73,0,*73
1506805640.46,9880,15.75,74180.5,0.23,-40.91,-40.79,0,*73
1506805641.7,9881,15.75,74182.0,0.23,-40.79,-40.59,0,*76
1506805642.89,9882,15.75,74178.8,0.23,-40.73,-40.53,0,*75
1506805644.11,9883,15.75,74180.0,0.23,-40.91,-40.59,0,*72
1506805645.33,9884,15.75,74176.8,0.23,-40.79,-40.91,0,*77
1506805646.55,9885,15.75,74176.5,0.23,-40.91,-40.79,0,*76
1506805647.75,9886,15.75,74176.5,0.23,-40.91,-40.91,0,*73
1506805648.97,9887,15.75,74176.3,0.23,-40.97,-40.91,0,*74
1506805650.19,9888,15.75,74176.5,0.27,-41.03,-40.85,0,*76
1506805651.39,9889,15.75,74176.3,0.23,-41.11,-40.91,0,*75
1506805652.6,9890,15.75,74180.0,0.23,-40.91,-40.79,0,*72
1506805653.84,9891,15.75,74178.8,0.23,-40.97,-40.79,0,*75
1506805655.08,9892,15.75,74178.3,0.19,-40.97,-40.85,0,*7C
1506805656.31,9893,15.75,74178.3,0.23,-40.79,-40.79,0,*77
1506805657.56,9894,15.75,74178.8,0.21,-41.03,-40.97,0,*7E
1506805658.81,9895,15.75,74176.8,0.21,-41.03,-40.85,0,*7C
1506805660.01,9896,15.75,74176.8,0.19,-41.03,-41.03,0,*7B
1506805661.2,9897,15.75,74176.3,0.19,-41.17,-41.17,0,*7A
1506805662.42,9898,15.75,74178.8,0.21,-41.17,-41.03,0,*7B
1506805663.68,9899,15.75,74182.0,0.21,-40.97,-40.85,0,*7C
1506805664.9,9900,15.75,74182.0,0.21,-41.17,-41.03,0,*7B
1506805666.15,9901,15.75,74178.5,0.21,-41.03,-40.97,0,*73
1506805667.4,9902,15.75,74182.3,0.21,-41.17,-40.97,0,*75
1506805668.66,9903,15.75,74178.0,0.21,-40.97,-40.85,0,*7E
1506805669.92,9904,15.75,74176.8,0.21,-41.03,-40.97,0,*76
1506805671.14,9905,15.75,74178.3,0.19,-41.17,-40.97,0,*79
1506805672.36,9906,15.75,74178.3,0.19,-41.17,-40.97,0,*7A
1506805673.58,9907,15.75,74176.0,0.19,-41.03,-40.97,0,*7E
1506805674.85,9908,15.75,74178.8,0.21,-40.97,-40.97,0,*76
1506805676.12,9909,15.75,74176.0,0.21,-40.97,-40.97,0,*77
1506805677.35,9910,15.75,74178.3,0.21,-41.03,-41.03,0,*7F
1506805678.57,9911,15.75,74176.5,0.21,-41.03,-41.03,0,*7E
1506805679.77,9912,15.75,74178.8,0.19,-41.03,-41.03,0,*76
1506805680.97,9913,15.75,74178.8,0.19,-41.03,-41.03,0,*77
1506805682.2,9914,15.75,74178.0,0.19,-40.79,-40.79,0,*70
1506805683.44,9915,15.75,74176.0,0.19,-40.79,-40.79,0,*71
1506805684.67,9916,15.75,74178.3,0.21,-40.79,-40.65,0,*74
1506805685.91,9917,15.75,74176.8,0.19,-40.97,-40.85,0,*70
1506805687.18,9918,15.75,74176.5,0.21,-40.97,-40.85,0,*74
1506805688.42,9919,15.75,74176.5,0.19,-40.85,-40.85,0,*7D
1506805689.67,9920,15.75,74178.8,0.21,-41.17,-40.97,0,*75
1506805690.91,9921,15.75,74178.3,0.19,-40.97,-40.85,0,*75
1506805692.15,9922,15.75,74178.5,0.19,-40.97,-40.79,0,*75
1506805693.41,9923,15.75,74182.0,0.21,-40.85,-40.85,0,*7F
1506805694.65,9924,15.75,74176.5,0.21,-40.79,-40.65,0,*75
1506805695.9,9925,15.75,74176.0,0.21,-40.85,-40.79,0,*7A
1506805697.16,9926,15.69,74172.3,0.21,-40.85,-40.79,0,*79
1506805698.43,9927,15.75,74176.8,0.21,-40.85,-40.85,0,*7B
1506805699.64,9928,15.75,74178.3,0.21,-40.65,-40.65,0,*74
1506805700.87,9929,15.75,74174.5,0.21,-40.65,-40.59,0,*7A
1506805702.08,9930,15.75,74178.8,0.21,-40.65,-40.65,0,*7D
1506805703.32,9931,15.75,74178.0,0.21,-41.03,-40.85,0,*73
1506805704.57,9932,15.75,74178.8,0.21,-41.03,-40.85,0,*70